GEFSSGP_con_probscp_186.txt.gz
Probability
0 0 0 0 0 0 0 0 0 0 0 0 0 0 0 1 1 0 0 0 0 0 0 0 0 0 0 0 0 0 1 1 1 1 1 0 0 0 0 0 0 0 0 0 0 0 0 0 0
0 0 0 0 0 0 0 0 0 0 0 0 0 0 1 2 2 1 1 0 0 0 0 0 0 0 0 0 0 0 1 2 2 1 0 0 0 0 0 0 0 0 0 0 0 0 0 0 0
0 0 0 0 0 0 0 0 0 0 0 0 0 1 2 3 3 2 1 0 0 0 0 0 0 0 0 0 0 0 1 2 1 0 0 0 0 0 0 0 0 0 0 0 0 0 0 0 0
0 0 0 0 0 0 0 0 0 0 0 0 1 2 3 3 3 3 1 1 0 0 0 0 0 0 0 0 0 0 0 0 0 0 0 0 0 0 0 0 0 1 1 1 0 0 0 0 0
0 0 0 0 0 0 0 0 0 0 0 0 1 2 3 3 3 2 1 1 0 0 0 0 0 0 0 0 0 0 0 0 0 0 0 0 0 0 1 1 1 1 2 2 1 0 0 0 0
0 0 0 0 0 0 0 0 0 0 0 0 1 3 5 6 6 3 1 0 0 0 0 0 0 0 0 0 0 0 0 0 0 0 0 0 0 1 2 2 2 3 3 3 1 1 1 0 0
0 0 0 0 0 0 0 0 0 0 0 0 1 3 8 12 12 7 3 0 0 0 0 0 1 0 0 0 0 0 0 0 0 0 0 0 0 1 2 3 3 3 3 3 3 2 1 0 0
0 0 0 0 0 0 0 0 0 0 0 0 1 4 10 18 19 14 8 4 1 0 1 1 1 0 0 0 0 0 0 0 0 0 0 0 0 0 1 1 3 3 3 3 3 3 1 0 0
0 0 0 0 0 0 0 0 0 0 0 0 3 7 15 24 26 21 16 10 5 2 2 2 1 0 0 0 0 0 0 0 0 0 0 0 0 0 0 1 2 3 3 3 3 2 1 0 0
0 0 0 0 0 0 0 0 0 0 0 1 6 13 22 28 28 24 20 14 9 5 4 4 3 2 1 0 0 0 0 0 0 0 0 0 0 0 0 0 1 1 2 2 2 1 0 0 0
0 0 0 0 0 0 0 0 0 0 0 2 8 17 28 31 26 21 17 13 10 7 6 6 6 5 3 1 0 0 0 0 0 0 0 0 1 1 1 0 0 0 1 1 1 0 0 0 0
0 0 0 0 0 0 0 0 0 0 0 2 7 17 28 30 23 16 13 11 9 7 7 8 9 8 4 1 0 0 0 0 0 0 0 1 2 2 2 1 1 0 0 0 0 0 0 0 0
0 0 0 0 0 0 0 0 0 0 0 1 4 13 22 23 19 15 12 12 11 10 9 9 10 9 7 4 2 0 0 0 0 0 0 1 2 3 3 3 2 1 0 0 0 0 0 0 0
0 0 0 0 0 0 0 0 0 0 0 0 2 7 12 15 16 14 14 15 15 13 11 11 12 12 10 7 4 1 0 0 0 0 0 1 2 3 3 3 2 1 0 0 0 0 0 0 0
0 0 0 0 0 0 0 0 0 0 0 1 3 5 7 10 13 14 15 16 17 16 15 13 14 14 12 9 5 2 0 0 0 0 0 0 1 1 3 3 2 0 0 0 0 0 0 0 0
0 0 0 0 0 0 0 0 0 0 0 2 4 5 6 9 12 14 15 16 17 18 18 17 17 16 14 10 7 4 2 1 1 1 1 0 0 1 2 3 2 1 1 0 0 0 1 1 1
0 0 0 0 0 0 0 0 0 0 0 2 5 7 9 11 13 16 17 17 19 20 21 20 20 17 14 12 11 8 5 4 3 1 1 1 0 1 2 2 2 2 2 1 0 0 1 2 2
0 0 0 0 0 0 0 0 1 0 0 2 5 9 11 12 15 18 20 20 20 21 22 21 19 16 14 16 16 13 9 7 6 3 2 2 1 0 1 1 1 1 1 1 0 0 0 1 1
0 0 0 0 0 0 0 0 0 0 0 2 5 9 11 13 17 20 21 20 19 19 21 21 20 17 17 19 19 16 11 10 9 7 5 4 2 1 0 1 2 2 1 0 0 0 0 0 0
0 0 0 0 0 0 0 0 0 0 1 1 4 7 10 13 17 21 23 20 16 17 21 23 24 22 20 19 19 17 13 12 11 10 8 6 4 2 2 3 4 4 3 1 0 0 0 0 0
0 0 0 0 0 0 0 0 0 0 0 0 1 4 7 10 14 19 25 24 18 18 22 26 29 28 23 18 16 16 14 12 11 11 9 7 6 5 5 5 6 7 5 2 1 0 1 1 1
0 0 0 0 0 0 0 0 0 0 0 0 0 1 4 7 11 16 23 26 22 20 24 29 32 32 28 21 16 15 14 11 9 10 10 9 8 7 7 7 8 8 6 4 2 1 1 2 3
0 0 0 0 0 0 0 0 0 0 0 0 0 0 2 5 9 14 20 25 25 22 24 28 32 33 30 26 20 16 14 10 8 9 10 10 8 8 7 6 7 8 7 4 3 3 3 3 3
0 0 0 0 0 0 0 0 0 1 1 1 2 1 1 4 8 12 17 24 26 25 25 28 32 34 33 29 23 17 14 12 10 9 9 8 8 8 8 6 5 6 5 3 3 3 3 3 3
0 0 0 0 0 0 0 0 1 2 2 2 3 2 2 4 7 10 15 22 27 28 28 31 34 35 34 31 25 18 15 14 11 10 11 11 10 11 9 7 5 4 3 2 2 2 2 3 3
0 0 0 0 0 0 0 1 2 2 1 1 3 4 5 6 7 10 15 20 25 28 28 31 35 35 34 33 30 25 20 16 13 12 13 15 14 13 10 8 6 4 3 3 2 2 1 1 2
0 0 0 0 0 0 0 1 1 1 0 1 2 5 8 8 9 12 15 18 22 25 25 28 32 34 34 34 33 31 26 21 17 14 13 15 15 13 11 9 6 4 4 3 3 2 1 1 2
0 0 0 0 0 0 0 0 1 1 0 0 2 5 9 10 10 12 13 17 20 21 22 25 29 33 34 32 30 30 29 26 22 17 14 13 13 12 12 11 8 6 5 5 4 3 2 1 1
0 0 0 0 0 0 0 0 1 1 1 0 2 5 8 10 11 10 11 15 19 21 21 23 27 31 31 28 26 27 28 29 26 22 18 16 15 13 13 13 10 8 8 8 6 4 2 1 1
0 0 0 0 0 0 0 1 2 2 1 1 3 5 7 10 11 9 9 14 20 22 22 22 25 28 28 26 25 26 27 30 30 26 22 19 17 14 12 12 10 9 9 9 8 5 3 2 2

GEFSSGP_con_probscp_192.txt.gz
Probability
0 1 2 2 3 2 1 0 0 0 0 0 0 0 1 3 3 2 4 8 9 4 0 0 0 0 0 0 0 0 0 0 0 0 0 0 0 0 0 0 0 0 0 0 0 1 2 3 3
0 0 1 1 2 1 0 0 0 0 0 0 0 1 2 3 3 3 5 7 7 3 0 0 0 0 0 0 0 0 0 0 0 0 0 0 0 0 0 0 0 0 0 0 0 1 2 2 2
0 0 0 0 0 0 0 0 0 0 0 0 1 1 2 2 2 4 5 6 5 3 1 0 0 0 0 1 0 0 0 0 0 0 0 0 0 0 0 0 0 0 0 0 0 0 1 1 1
0 0 0 0 0 0 0 0 0 0 0 1 2 2 2 2 3 4 4 5 7 6 3 1 0 0 0 0 0 0 0 0 0 0 0 0 0 0 0 0 0 0 0 0 0 0 0 0 0
0 0 0 0 0 0 0 0 0 0 0 2 3 2 2 3 5 6 4 6 9 8 4 1 0 0 0 0 0 0 0 0 0 0 0 0 0 0 0 0 0 0 0 0 0 0 0 0 0
0 0 0 0 0 0 0 0 0 0 1 2 3 3 3 5 6 5 4 6 10 9 5 1 0 0 0 0 0 0 0 0 0 0 0 0 0 0 0 0 0 0 1 1 1 0 0 0 0
0 0 0 0 0 0 0 0 0 0 1 3 3 4 6 6 6 5 6 8 11 10 5 1 0 0 0 0 0 0 0 0 0 0 0 0 0 0 1 1 1 0 1 1 1 0 0 0 0
0 0 0 0 0 0 0 0 0 0 1 3 3 5 8 8 7 7 9 12 15 13 6 1 0 1 0 0 0 0 0 0 0 0 0 0 0 0 1 1 1 0 0 0 0 0 0 0 0
0 0 0 0 0 0 0 0 0 0 2 3 4 7 11 12 11 11 13 17 20 17 9 4 2 1 0 0 0 0 0 0 0 0 0 0 0 0 0 0 0 0 0 0 0 0 0 0 0
0 0 0 0 0 0 0 0 0 1 3 5 8 13 17 17 16 15 15 19 23 22 15 9 5 2 1 1 0 0 0 0 0 0 0 0 0 0 0 0 0 0 0 0 0 1 0 0 0
0 0 0 0 0 0 0 0 0 1 3 8 15 20 22 20 18 16 14 16 22 24 20 14 11 8 5 3 1 0 0 0 0 1 1 1 1 1 0 0 0 0 0 0 0 0 0 0 0
0 0 0 0 0 0 0 0 1 2 5 10 18 23 22 19 17 15 14 15 21 26 25 23 22 20 16 11 5 3 2 1 1 2 2 2 2 2 1 0 0 0 0 0 0 0 0 0 0
0 0 0 0 0 0 0 0 1 3 8 13 17 20 18 17 17 17 17 19 24 30 32 34 37 34 30 23 14 7 5 4 3 2 1 1 2 3 1 0 1 1 0 0 0 0 0 0 1
0 0 0 0 0 0 0 0 1 5 11 15 16 17 16 17 19 21 24 27 31 36 40 44 46 44 38 28 20 14 9 7 5 3 2 2 3 4 2 1 1 1 1 1 1 0 0 1 1
0 0 0 0 0 0 0 0 2 7 12 15 15 16 18 20 21 24 30 35 36 41 47 48 47 44 37 27 22 18 14 10 10 10 8 7 7 5 2 1 1 1 2 2 2 2 1 1 1
0 0 0 0 0 0 0 1 4 7 10 12 13 14 20 24 23 26 34 38 40 45 51 50 46 42 36 29 25 23 20 20 21 20 17 13 12 8 3 2 3 3 3 3 3 3 2 1 0
0 0 0 0 0 0 0 1 4 5 7 9 11 17 25 29 29 33 39 41 43 50 55 55 53 49 42 37 33 30 30 32 32 30 25 21 17 11 6 7 9 6 5 5 5 5 3 1 0
0 0 0 0 0 0 0 2 3 3 4 7 11 21 32 36 37 40 42 44 48 55 61 61 60 58 51 45 41 38 37 38 37 34 31 26 19 12 8 12 14 10 7 8 9 9 6 3 1
0 0 0 0 0 0 1 2 2 2 4 7 13 25 35 40 43 46 47 47 52 60 66 66 64 62 58 51 45 43 42 40 37 36 35 29 21 14 11 14 17 13 10 9 9 9 9 6 3
0 0 0 0 0 0 1 2 2 3 4 6 12 25 35 41 49 54 53 51 55 63 68 68 66 64 61 56 49 46 46 42 38 40 39 31 24 18 15 17 19 16 13 10 9 9 9 8 7
0 0 0 0 0 0 0 1 3 3 3 5 10 20 30 40 52 60 59 57 60 66 68 67 66 65 63 58 52 49 48 45 43 44 41 33 27 22 19 21 23 21 16 13 11 10 9 9 9
0 0 0 0 0 0 0 1 3 4 3 3 7 15 24 37 52 63 65 63 64 65 66 67 68 66 61 55 50 49 48 45 44 45 40 32 24 20 20 24 27 25 19 14 12 11 10 10 10
0 0 0 0 0 0 0 0 2 5 5 3 5 11 20 32 50 62 66 65 63 61 62 66 68 65 57 49 46 46 44 40 40 39 35 28 21 15 16 22 26 23 17 15 15 14 11 10 9
0 0 1 1 1 0 0 1 3 6 6 4 4 9 16 27 44 58 63 63 61 59 60 63 65 63 55 47 44 43 40 36 36 33 28 23 17 12 12 16 19 18 16 17 19 17 13 10 9
0 0 1 2 1 0 0 1 4 6 5 4 5 8 13 22 37 52 60 63 63 63 64 66 67 63 54 48 44 41 37 35 34 29 23 18 15 12 12 13 15 16 15 16 20 20 14 11 9
0 0 1 1 1 0 1 3 5 5 4 4 5 8 11 18 31 44 55 62 63 64 66 68 68 64 54 47 43 39 37 35 32 27 22 18 15 14 16 17 18 19 15 14 19 21 16 11 9
0 0 0 0 0 0 1 4 6 5 4 4 5 8 11 18 28 37 48 56 60 62 63 64 65 62 55 47 41 38 38 37 33 28 24 22 19 17 20 23 22 20 17 16 19 20 16 12 10
0 0 0 0 0 0 0 3 7 8 5 3 3 7 12 18 24 31 40 49 55 57 58 59 59 59 55 47 42 40 42 43 38 33 30 27 24 23 26 29 27 24 20 19 19 17 14 12 9
1 0 0 0 0 0 0 2 7 8 5 3 5 9 16 20 24 29 35 41 45 48 52 55 56 55 52 47 45 44 46 46 43 38 36 34 32 32 34 34 32 28 24 22 19 15 12 10 7
1 1 0 0 0 0 1 3 6 7 5 6 9 14 19 23 28 31 33 37 39 41 48 53 55 54 51 48 47 46 46 47 45 41 40 40 38 37 38 36 34 30 25 22 19 14 11 9 7

GEFSSGP_con_probscp_198.txt.gz
Probability
0 0 0 0 0 0 0 0 0 0 0 0 0 0 0 0 0 0 0 0 1 0 1 1 2 3 2 1 1 1 1 0 0 0 0 1 2 2 1 0 0 0 0 0 0 0 0 0 0
0 0 0 0 0 0 0 0 0 0 0 0 0 0 0 0 0 0 0 1 1 1 0 0 1 1 1 0 0 0 0 0 0 0 0 1 2 2 1 0 0 0 0 0 0 0 0 0 0
0 0 0 0 0 0 0 0 0 0 0 0 0 0 0 1 1 1 2 3 2 1 0 0 0 0 0 0 0 0 0 0 0 0 0 0 1 1 0 0 0 0 0 0 0 0 0 0 0
0 0 0 0 0 0 0 0 1 2 3 3 2 1 0 2 5 6 5 4 3 1 0 0 0 0 0 0 0 0 0 0 0 0 0 0 0 0 0 0 0 0 0 0 0 0 0 0 0
0 0 0 0 0 0 0 1 3 5 7 6 3 1 1 5 10 10 7 5 4 2 1 0 0 0 0 0 0 0 0 0 0 0 0 0 0 0 0 0 0 0 0 0 0 0 1 1 1
0 0 0 0 0 0 0 1 5 8 9 7 4 1 3 8 13 11 8 6 5 3 1 0 0 0 0 0 0 0 0 0 0 0 0 0 0 0 0 0 0 0 1 1 1 1 2 2 2
0 0 0 0 0 0 0 2 5 8 9 7 4 3 4 9 12 11 8 7 5 4 2 1 0 0 0 0 0 0 0 0 0 0 0 0 0 0 0 0 0 1 2 2 2 3 3 3 2
0 0 0 0 0 0 1 3 6 8 7 5 4 4 6 11 14 12 9 7 5 4 3 1 0 0 0 0 0 0 0 0 0 0 0 0 0 0 0 0 0 1 2 3 3 3 3 2 1
0 0 0 0 0 1 3 6 7 7 7 5 5 7 13 19 19 15 10 8 6 4 3 2 1 0 0 0 0 0 0 0 0 0 0 0 0 0 0 0 0 1 3 3 3 3 2 1 0
0 0 0 0 0 1 5 8 7 8 9 8 7 13 21 28 25 17 10 8 6 4 3 2 1 0 0 0 0 0 0 0 0 0 0 0 0 0 0 0 1 2 3 3 2 2 1 0 0
0 0 0 0 0 1 4 6 6 8 9 8 10 17 25 29 28 19 10 6 4 3 3 2 0 0 0 0 0 0 0 0 0 0 0 0 0 0 0 0 1 2 2 1 1 1 0 0 0
0 0 0 0 0 1 3 4 4 5 6 8 12 18 23 25 25 19 11 6 4 3 2 1 0 0 0 0 0 0 0 0 0 0 0 0 0 0 0 0 1 1 1 0 0 0 0 0 0
0 0 0 0 0 1 3 3 3 3 7 12 14 16 18 19 19 17 14 10 6 4 2 1 0 0 0 0 1 1 0 0 0 0 0 0 0 0 0 0 0 0 0 0 0 0 0 0 0
0 0 0 0 1 2 3 4 3 5 10 13 13 12 13 14 15 17 17 14 11 8 5 3 1 0 0 1 2 2 1 0 0 0 0 0 0 0 0 0 0 0 0 0 0 0 0 0 0
0 0 0 0 1 2 4 5 6 7 12 13 11 10 12 14 17 20 19 18 18 16 13 10 7 4 3 2 2 2 1 0 0 0 0 0 0 0 0 0 0 0 0 0 0 0 0 0 0
0 0 0 0 0 1 3 6 8 9 12 15 13 13 14 15 19 22 21 20 22 22 21 18 15 12 8 5 3 3 1 0 0 1 1 1 1 1 0 0 0 0 0 0 0 0 0 0 0
0 0 0 0 0 0 2 4 7 9 13 17 19 20 19 17 19 23 24 23 24 25 24 23 23 21 14 9 6 5 3 1 1 2 2 2 2 1 0 0 0 0 0 0 0 0 0 0 0
0 0 0 0 0 0 1 3 6 10 15 20 24 26 25 21 21 25 27 28 29 30 28 26 26 25 20 14 11 8 5 3 2 3 3 3 3 2 1 0 0 0 0 0 0 0 0 0 0
0 0 0 0 0 0 2 4 7 11 18 23 28 32 32 28 26 27 31 34 37 37 33 30 28 26 22 16 12 9 5 4 4 4 5 5 4 3 2 1 1 0 0 0 0 0 0 0 0
0 0 0 0 1 1 3 5 7 11 16 21 28 34 36 36 35 35 39 42 45 45 40 35 32 28 21 16 11 8 5 4 5 7 7 6 6 4 3 2 1 0 0 0 0 0 0 0 0
0 0 0 0 1 3 3 4 6 8 10 14 22 31 37 41 43 46 49 50 52 52 46 40 37 30 22 16 13 10 7 6 5 6 7 7 7 5 4 3 2 1 0 0 0 0 0 0 0
0 0 0 0 1 2 2 1 3 6 9 11 17 28 36 41 45 51 54 55 56 56 52 46 41 34 25 19 17 14 11 8 5 4 5 6 7 7 5 4 3 1 0 0 0 0 0 0 0
0 0 0 0 0 0 0 0 1 5 10 12 16 24 33 38 43 48 52 55 56 56 55 52 48 41 33 25 20 16 12 8 4 3 4 6 7 7 6 4 3 2 1 0 0 0 0 0 0
0 0 0 0 0 0 0 0 0 3 9 11 14 22 31 37 39 41 45 50 54 54 56 56 53 47 39 30 22 17 12 7 4 3 5 7 7 7 6 5 4 3 2 1 0 0 0 0 0
0 0 0 0 0 0 0 0 0 2 6 10 13 20 30 36 38 38 42 47 51 52 54 56 55 50 42 32 25 19 14 9 7 6 6 8 8 8 7 6 4 3 3 2 1 0 0 0 0
0 0 0 0 0 0 0 0 1 3 6 10 15 21 30 36 38 39 42 46 49 49 50 52 53 51 45 36 28 21 15 11 10 9 9 10 10 9 8 7 5 4 4 4 2 1 1 0 0
0 0 0 0 0 0 0 0 2 4 6 9 15 23 30 34 36 36 38 40 44 45 45 47 50 49 45 38 31 23 18 14 13 12 11 11 11 10 9 8 7 6 6 5 4 2 1 0 0
0 0 0 0 0 0 0 0 1 3 5 8 13 20 25 29 31 32 32 33 36 40 42 45 46 44 43 39 33 26 21 18 16 14 12 12 11 10 10 10 9 7 6 6 5 3 1 0 0
0 0 0 0 0 0 0 0 1 2 5 7 11 15 20 26 29 29 29 30 31 35 41 45 43 41 40 40 36 29 24 20 17 15 13 11 10 10 10 11 11 8 6 6 4 2 1 0 0
0 0 0 0 0 0 0 0 0 2 5 8 10 12 19 25 28 29 27 28 30 33 41 46 43 39 38 38 37 30 24 21 18 17 14 10 9 9 10 11 11 8 7 6 4 1 0 0 0

GEFSSGP_con_probscp_204.txt.gz
Probability
0 0 0 0 0 0 0 0 0 0 0 1 2 3 2 0 0 0 0 0 0 0 0 0 1 2 3 3 2 2 2 1 0 0 0 0 0 0 0 0 0 0 0 0 0 0 0 0 0
0 0 0 0 0 0 0 0 0 0 0 2 3 4 3 1 0 0 0 0 0 0 0 0 0 1 2 2 1 1 1 0 0 0 0 0 0 0 0 0 0 0 0 0 0 0 0 0 0
0 0 0 0 0 0 0 0 0 0 1 3 5 5 3 1 0 0 0 0 0 0 0 0 0 1 1 1 0 0 0 0 0 0 0 0 0 0 1 0 0 0 0 0 0 0 0 0 0
0 0 0 0 0 0 0 0 0 0 1 3 5 4 1 0 0 1 1 1 1 1 0 0 0 0 0 0 0 0 0 0 0 0 0 0 0 0 0 0 0 0 0 0 0 0 0 0 0
0 0 0 0 0 0 0 0 0 0 1 3 4 3 1 0 1 2 2 2 2 2 1 0 0 0 0 0 0 0 0 0 0 0 0 0 0 0 0 0 0 0 0 0 0 0 0 0 0
0 0 0 0 0 0 0 1 1 2 2 3 4 4 2 1 2 3 3 3 3 3 2 1 0 0 0 0 0 0 0 0 0 0 0 0 0 0 0 0 0 0 0 0 0 0 0 0 0
0 0 0 0 0 0 0 1 2 3 3 4 5 5 3 1 1 3 3 3 3 3 2 1 0 0 0 0 0 0 0 0 0 0 0 0 0 0 0 0 0 0 0 0 0 0 0 0 0
0 0 0 0 0 0 0 1 2 3 3 3 5 5 4 3 3 3 3 2 2 2 2 1 0 0 0 0 0 0 0 0 0 0 0 0 0 0 0 0 0 0 0 0 0 0 0 0 0
0 0 0 0 0 0 0 2 3 3 3 3 4 6 8 8 7 4 2 1 0 1 1 0 0 0 0 0 0 0 0 0 0 0 0 0 0 0 0 0 0 0 0 0 0 0 0 1 1
0 0 0 0 0 0 1 3 4 3 2 4 7 11 14 14 9 5 2 0 0 0 0 0 0 0 0 0 0 0 0 0 0 0 0 0 0 0 0 0 0 0 0 0 0 0 0 0 0
0 0 0 0 0 0 1 3 3 2 2 5 11 17 18 15 10 6 2 0 0 0 0 0 0 0 0 0 0 0 0 0 0 0 0 0 0 0 0 0 0 0 0 0 0 0 0 0 0
0 0 0 0 0 0 1 1 1 1 2 7 15 20 17 12 8 5 1 0 0 0 0 0 0 0 0 0 0 0 0 0 0 0 0 0 0 0 0 0 0 0 0 0 0 0 0 0 0
0 0 0 0 0 0 0 0 0 1 3 9 19 21 15 9 6 3 1 1 1 0 0 0 0 0 0 0 0 0 0 0 0 0 0 0 0 0 0 0 0 0 0 0 0 0 0 0 0
0 0 0 0 0 0 0 0 0 1 5 12 19 18 11 7 6 4 3 2 2 1 0 0 0 0 0 0 0 0 0 0 0 0 0 0 0 0 0 0 0 0 0 0 0 0 0 0 0
0 0 0 0 0 0 0 0 0 2 6 11 14 12 7 6 6 6 4 3 3 2 1 0 0 0 0 0 0 0 0 0 0 0 0 0 0 0 0 0 0 0 0 0 0 0 0 0 0
0 0 0 0 0 0 0 0 1 3 6 8 8 8 7 6 7 6 5 4 3 3 3 2 1 0 0 0 0 0 0 0 0 0 0 0 0 0 0 0 0 0 0 0 0 0 0 0 0
0 0 0 0 0 0 0 0 2 6 7 6 6 7 8 8 7 6 6 5 4 5 6 6 3 1 0 0 0 0 0 0 0 0 0 0 0 0 0 0 0 0 0 0 0 0 0 0 0
0 0 0 0 0 0 0 0 3 7 7 5 5 6 8 8 7 7 7 7 7 7 8 8 5 3 1 1 0 0 0 0 0 0 0 0 0 0 0 0 0 0 0 0 0 0 0 0 0
0 0 0 0 0 0 0 0 3 6 7 5 4 6 8 8 8 8 8 8 9 10 10 9 7 4 2 1 0 0 0 0 0 0 0 1 1 0 0 0 0 0 0 0 0 0 0 0 0
0 0 0 1 2 1 1 1 2 5 6 4 4 5 7 8 10 11 12 11 11 12 13 12 9 6 4 2 0 0 0 0 0 0 1 2 2 1 1 1 0 0 0 0 0 0 0 0 0
0 0 1 2 3 2 1 1 2 4 6 4 2 3 5 8 11 15 16 16 15 15 15 15 14 11 8 5 2 1 1 1 1 1 1 3 3 3 3 2 1 0 0 0 0 0 0 0 0
0 0 1 2 2 1 1 0 0 2 4 3 1 1 4 8 13 18 21 22 23 22 19 19 18 16 13 8 5 4 3 2 2 2 2 3 3 3 3 2 1 0 0 0 0 0 0 0 0
0 0 1 1 1 0 0 0 0 1 2 1 1 1 3 9 15 22 25 29 31 29 26 24 22 18 14 11 9 7 6 4 2 2 3 4 3 3 3 3 2 1 1 0 0 0 0 0 0
0 0 0 0 0 0 0 0 0 0 0 1 1 3 6 11 18 24 28 32 34 35 33 31 26 19 15 13 12 11 10 7 4 3 3 4 4 3 4 5 4 3 2 1 0 0 0 0 0
0 0 0 0 0 0 0 0 0 0 0 0 1 5 10 16 20 24 28 32 35 37 38 36 29 22 18 16 15 14 12 10 7 5 5 5 4 4 5 6 5 4 4 2 1 0 0 0 0
0 0 0 0 0 1 1 1 1 1 1 1 2 5 12 17 18 20 25 31 33 35 37 37 30 24 21 20 18 16 14 12 10 9 8 7 6 6 6 6 6 6 5 4 1 0 0 0 0
0 0 0 0 0 1 2 2 2 2 2 2 3 5 9 13 14 16 22 27 29 30 31 32 30 27 26 24 20 17 16 16 14 12 10 9 9 8 7 6 6 6 6 5 3 1 0 0 0
0 0 0 0 0 1 2 2 2 2 2 2 2 3 6 8 11 15 20 22 24 25 25 26 28 29 30 26 21 18 18 18 16 13 11 11 10 9 8 7 7 6 6 6 4 2 0 0 1
0 0 0 0 0 0 1 1 1 1 1 1 2 3 4 6 10 14 18 19 19 20 21 21 22 26 28 24 19 17 17 16 14 12 11 11 10 8 8 8 7 7 6 6 5 3 1 0 1
0 0 0 0 0 0 0 0 1 2 2 2 3 4 4 6 9 12 15 17 17 17 19 19 18 22 25 21 16 16 15 13 12 12 11 10 9 8 8 9 8 7 6 6 5 2 1 0 1

GEFSSGP_con_probscp_210.txt.gz
Probability
0 0 0 0 0 0 0 0 0 1 1 1 0 0 0 0 0 0 0 0 0 0 0 1 2 3 4 4 4 2 1 0 0 0 0 0 0 0 0 0 0 0 0 0 0 0 0 0 0
0 0 0 0 0 0 0 0 0 1 1 1 0 0 0 0 0 0 0 0 0 0 0 1 2 2 3 4 4 2 1 0 0 0 0 0 0 0 0 0 0 0 0 0 0 0 0 0 0
0 0 0 0 0 0 0 0 1 2 2 2 1 0 0 0 0 0 0 0 0 0 0 0 1 1 2 3 3 2 1 0 0 0 0 0 0 0 0 0 0 0 0 0 0 0 0 0 0
0 0 0 0 0 0 0 0 1 2 3 2 1 0 1 1 0 0 0 0 0 0 0 1 1 1 1 1 1 1 1 0 0 0 0 0 0 0 0 0 0 0 0 0 0 0 0 0 0
0 0 0 0 0 0 0 0 1 2 3 2 1 1 2 2 1 1 0 0 0 1 1 2 2 2 1 0 0 0 0 0 0 0 0 0 0 0 0 0 0 0 0 0 0 0 0 0 0
0 0 0 0 0 0 0 0 1 2 3 3 1 1 2 3 3 2 1 0 1 2 2 2 2 2 1 0 0 0 0 0 0 0 0 0 0 0 0 0 0 0 0 0 0 0 0 0 0
0 0 0 0 0 0 0 0 1 2 3 3 1 1 3 4 3 3 2 0 1 2 3 2 1 1 1 0 0 0 0 0 0 0 0 0 0 0 0 0 0 0 0 0 0 0 0 0 0
0 0 0 0 0 0 0 0 0 1 2 3 1 1 3 5 4 2 1 0 0 1 3 3 1 0 0 0 0 0 0 0 0 0 0 0 0 0 0 0 0 0 0 0 0 0 1 1 1
0 0 0 0 0 0 0 0 0 0 1 1 1 1 4 6 5 2 1 0 0 0 1 2 1 0 0 0 0 0 0 0 0 0 0 0 0 0 0 0 0 0 0 0 0 1 2 2 2
0 0 0 0 0 0 0 0 0 0 0 1 2 4 7 8 6 3 1 0 0 0 0 0 0 0 0 0 0 0 0 0 0 0 0 0 0 0 0 0 0 0 0 0 1 2 2 3 3
0 0 0 0 0 0 0 0 0 0 0 1 4 8 10 9 7 4 1 0 0 0 0 0 0 0 0 0 0 0 0 0 0 0 0 0 0 0 0 0 0 0 1 1 1 2 3 3 3
0 0 0 0 0 0 0 0 0 0 0 1 5 10 10 9 8 4 1 0 0 0 0 0 0 0 0 0 0 0 0 0 0 0 0 0 0 0 0 0 0 1 2 2 3 3 3 3 3
0 0 0 0 0 0 0 0 0 0 0 1 4 7 7 8 7 3 1 0 0 0 0 0 0 0 0 0 0 0 0 0 0 0 0 0 0 0 0 0 0 1 2 3 3 3 3 3 3
0 0 0 0 0 0 0 0 0 0 0 1 3 4 4 5 5 3 1 0 0 0 0 0 0 0 0 0 0 0 0 0 0 0 0 0 0 0 0 0 0 1 2 3 3 3 3 3 3
0 0 0 0 0 0 0 0 0 0 1 2 3 2 2 3 4 3 1 1 0 0 1 1 0 0 1 1 1 0 0 0 0 0 0 0 0 0 0 0 0 0 1 3 3 3 3 3 2
0 0 0 0 0 0 0 0 0 0 1 2 2 1 2 3 3 2 1 1 1 1 2 2 1 1 2 3 2 2 2 1 1 1 1 0 0 0 0 0 0 0 1 2 2 2 2 2 1
0 0 0 0 0 0 0 0 0 0 0 1 1 1 2 2 1 0 0 1 2 3 4 5 4 3 4 4 4 3 3 3 2 2 2 1 1 0 0 0 0 0 0 1 1 1 1 1 0
0 0 0 0 0 0 0 0 0 0 0 1 2 2 2 2 1 1 2 3 4 6 7 8 8 7 6 5 5 4 4 3 3 4 3 3 2 1 1 0 0 0 0 0 0 0 0 0 0
0 0 0 0 0 0 0 0 0 0 0 1 2 3 3 3 4 6 7 8 9 11 12 12 11 10 8 7 7 6 5 4 5 5 5 4 3 3 2 1 0 1 1 1 0 0 0 0 0
0 0 0 0 0 0 0 0 0 0 0 1 2 3 4 6 9 12 15 15 15 17 18 17 16 15 12 10 9 8 7 6 6 6 6 4 4 4 3 1 1 2 2 2 1 1 1 1 0
0 0 0 0 0 0 0 0 0 0 0 0 1 2 5 8 12 17 21 22 21 21 22 22 22 20 17 14 13 11 10 8 6 6 6 5 6 6 4 2 2 3 3 3 3 3 3 2 1
0 0 0 0 0 0 0 0 0 0 1 1 1 2 6 10 13 17 24 27 25 23 23 25 25 23 20 17 16 16 13 8 6 7 6 5 6 6 4 4 4 5 5 4 4 5 5 3 2
0 0 0 0 0 0 0 0 0 0 0 1 1 3 6 9 13 17 22 27 28 25 24 26 27 26 22 19 19 18 14 9 8 8 8 7 6 5 5 5 6 7 7 7 7 8 7 6 4
0 0 0 0 0 0 0 0 0 0 0 0 1 3 6 6 9 15 21 26 29 29 28 29 31 32 28 23 21 18 14 11 10 11 10 10 9 8 8 8 9 9 9 10 13 12 11 10 10
0 0 0 0 0 0 0 0 0 0 0 1 2 4 4 4 7 14 23 29 33 34 34 35 37 39 36 30 24 19 15 13 12 13 12 12 12 12 12 12 14 14 13 13 16 16 15 14 15
0 0 0 0 0 0 0 0 0 0 0 1 3 4 5 6 9 14 23 32 36 37 37 38 40 42 40 34 28 23 18 15 13 12 12 12 13 15 16 17 19 19 18 17 18 18 18 17 17
0 0 0 0 0 0 0 0 0 0 1 4 5 6 6 8 10 13 22 31 36 37 37 35 36 39 37 33 28 25 21 18 16 13 13 14 16 17 19 19 20 21 21 21 21 20 19 19 18
0 0 0 0 0 0 0 0 0 0 3 7 10 9 7 8 10 14 21 28 31 34 35 32 30 32 32 29 26 24 23 22 22 19 17 17 19 20 20 19 19 21 22 23 23 22 20 19 18
0 0 0 0 0 0 0 0 1 2 5 10 12 10 8 9 12 17 22 26 29 31 34 33 31 31 30 29 26 24 24 25 26 24 21 20 21 21 20 18 19 21 23 24 23 20 18 18 20
0 0 0 0 0 0 0 1 2 3 7 11 13 11 9 11 14 18 24 28 29 31 34 36 36 33 32 32 28 25 26 27 28 25 21 20 21 19 19 18 18 21 24 25 23 19 16 17 20